GALILEO-PFM 1 37846U 11060A 23340.56371771 -.00000073 00000-0 00000+0 0 9995 2 37846 57.1183 6.7736 0002014 317.0598 42.9796 1.70476025 75500 GALILEO-FM2 1 37847U 11060B 23340.48799479 -.00000074 00000-0 00000+0 0 9997 2 37847 57.1191 6.7757 0004027 303.1475 56.4929 1.70475450 75508 GALILEO-FM3 1 38857U 12055A 23339.42959718 .00000065 00000-0 00000-0 0 9990 2 38857 55.3235 126.9603 0002517 238.0260 121.9313 1.70473667 69241 GALILEO-FM4 1 38858U 12055B 23340.57209624 .00000068 00000-0 00000-0 0 9996 2 38858 55.3239 126.9306 0001512 162.5919 197.3957 1.70473862 69262 GALILEO 5 (261) 1 40128U 14050A 23341.12795373 -.00000084 00000-0 00000+0 0 9997 2 40128 49.8499 310.8130 1606075 143.9071 228.1104 1.85519673 63132 GALILEO 6 (262) 1 40129U 14050B 23340.30901823 -.00000084 00000-0 00000-0 0 9997 2 40129 49.8692 309.9192 1604238 144.6855 227.1052 1.85520316 63342 GALILEO 7 (263) 1 40544U 15017A 23340.92954525 -.00000072 00000-0 00000+0 0 9993 2 40544 56.9139 6.7239 0005462 258.9782 101.0158 1.70476194 54124 GALILEO 8 (264) 1 40545U 15017B 23340.59686880 -.00000074 00000-0 00000+0 0 9995 2 40545 56.9199 6.7475 0005207 248.1960 111.8035 1.70475771 54122 GALILEO 9 (205) 1 40889U 15045A 23339.19203561 -.00000011 00000-0 00000+0 0 9993 2 40889 55.3142 247.1608 0005272 8.2226 351.8357 1.70472902 51241 GALILEO 10 (206) 1 40890U 15045B 23338.23958566 -.00000013 00000-0 00000-0 0 9994 2 40890 55.3127 247.1828 0003831 19.1662 340.8991 1.70472942 51251 GALILEO 12 (269) 1 41174U 15079A 23339.58354663 .00000065 00000-0 00000-0 0 9990 2 41174 55.3413 126.6638 0001686 334.9049 25.0686 1.70474636 49014 GALILEO 11 (268) 1 41175U 15079B 23337.45687098 .00000055 00000-0 00000-0 0 9995 2 41175 55.3377 126.7202 0001022 350.7011 9.2729 1.70474485 49396 GALILEO 14 (26B) 1 41549U 16030A 23339.92502829 -.00000008 00000-0 00000-0 0 9999 2 41549 55.4595 247.1262 0004033 346.2540 13.7842 1.70473101 46915 GALILEO 13 (26A) 1 41550U 16030B 23340.21640856 -.00000007 00000-0 00000-0 0 9997 2 41550 55.4587 247.1195 0002699 321.2331 38.7967 1.70473392 46917 GALILEO 15 (267) 1 41859U 16069A 23338.11757735 .00000058 00000-0 00000-0 0 9997 2 41859 55.0057 126.7537 0001706 295.1792 64.7813 1.70474574 43613 GALILEO 16 (26C) 1 41860U 16069B 23338.55870408 .00000060 00000-0 00000-0 0 9993 2 41860 55.0016 126.7382 0001276 28.7195 331.2671 1.70474810 43872 GALILEO 17 (26D) 1 41861U 16069C 23339.51208353 .00000064 00000-0 00000+0 0 9998 2 41861 55.0049 126.7180 0002169 251.1302 108.8279 1.70473406 43882 GALILEO 18 (26E) 1 41862U 16069D 23339.07255109 .00000062 00000-0 00000-0 0 9990 2 41862 55.0031 126.7241 0001298 238.4939 121.4743 1.70474876 43876